Regional Weather Roundup
Issued by NWS

Home | Current Version | Previous Version | Graphics & Text | Print | Product List | Glossary Off
Versions: 1 2 3 4 5 6 7 8 9 10 11 12 13 14 15 16 17 18 19 20 21 22 23 24 25 26 27 28 29 30 31 32 33 34 35 36 37 38 39 40 41 42 43 44 45 46 47 48 49 50

000
ASUS43 KTOP 190608
RWRKS

WEATHER ROUNDUP FOR KANSAS
NATIONAL WEATHER SERVICE GOODLAND KS
100 AM CDT SAT APR 19 2014

NOTE:  "FAIR" INDICATES FEW OR NO CLOUDS BELOW 12,000 FEET WITH NO
SIGNIFICANT WEATHER AND/OR OBSTRUCTIONS TO VISIBILITY.

KSZ001>006-013>018-027>032-041>047-190700-
NORTHWEST KANSAS

CITY           SKY/WX    TMP DP  RH WIND       PRES   REMARKS
GOODLAND       MOCLDY    54  43  66 S23       29.91F
6HR MIN TEMP:  54; 6HR MAX TEMP:  72;

HAYS           FAIR      54  43  66 S14       30.03S
HILL CITY      FAIR      58  44  60 S15       29.98F
6HR MIN TEMP:  58; 6HR MAX TEMP:  72;

RUSSELL        FAIR      56  42  59 S18       30.02S
6HR MIN TEMP:  56; 6HR MAX TEMP:  69;

$$

KSZ061>065-074>080-084>089-190700-
SOUTHWEST KANSAS

CITY           SKY/WX    TMP DP  RH WIND       PRES   REMARKS
DODGE CITY     FAIR      53  45  74 S16       30.05F
6HR MIN TEMP:  53; 6HR MAX TEMP:  68;

ELKHART          N/A     55  42  61 S12         N/A
GARDEN CITY    FAIR      53  45  74 S16G25    30.00F
6HR MIN TEMP:  53; 6HR MAX TEMP:  67;

GREAT BEND     FAIR      54  43  66 S14       30.05F
LIBERAL        FAIR      54  43  66 SE18      30.04F
PRATT          FAIR      52  43  71 S8        30.10S
$$

KSZ066>073-081>083-090>101-190700-
SOUTHEAST KANSAS

CITY           SKY/WX    TMP DP  RH WIND       PRES   REMARKS
CHANUTE        FAIR      50  41  71 CALM      30.16F HAZE
6HR MIN TEMP:  47; 6HR MAX TEMP:  68;

COFFEYVILLE    FAIR      49  41  74 CALM      30.16S
6HR MIN TEMP:  49; 6HR MAX TEMP:  70;

HUTCHINSON     FAIR      55  40  56 SE14      30.09F
6HR MIN TEMP:  54; 6HR MAX TEMP:  69;

MEDICINE LODGE   N/A     57  45  64 S12       30.09F
NEWTON         FAIR      50  36  57 SE9       30.14F
PARSONS        FAIR      44  37  76 CALM      30.17S
6HR MIN TEMP:  44; 6HR MAX TEMP:  71;

WICHITA INTL   FAIR      55  39  54 SE12      30.12S
6HR MIN TEMP:  55; 6HR MAX TEMP:  70;

WICHITA JABRA  FAIR      53  41  63 SE9       30.12F
6HR MIN TEMP:  53; 6HR MAX TEMP:  69;

WICHITA MCCONL FAIR      55  42  61 SE10      30.13S
WINFIELD       FAIR      53  40  61 SE6       30.15R
6HR MIN TEMP:  52; 6HR MAX TEMP:  68;

$$

KSZ007>012-019>026-033>040-048>060-102>105-190700-
NORTHEAST KANSAS

CITY           SKY/WX    TMP DP  RH WIND       PRES   REMARKS
CONCORDIA      FAIR      57  40  52 S17       30.06F
6HR MIN TEMP:  55; 6HR MAX TEMP:  68;

EMPORIA        FAIR      53  40  61 SE10      30.14S
6HR MIN TEMP:  52; 6HR MAX TEMP:  67;

LAWRENCE       FAIR      49  41  74 SE6       30.16F
6HR MIN TEMP:  47; 6HR MAX TEMP:  68;

MANHATTAN      FAIR      56  40  55 S9        30.11F
6HR MIN TEMP:  56; 6HR MAX TEMP:  69;

OLATHE IND     FAIR      55  41  59 SE9       30.17F
6HR MIN TEMP:  55; 6HR MAX TEMP:  65;

OLATHE EXE     FAIR      54  41  61 SE6       30.17F
6HR MIN TEMP:  54; 6HR MAX TEMP:  65;

SALINA         FAIR      58  39  49 S16       30.08F
6HR MIN TEMP:  55; 6HR MAX TEMP:  70;

TOPEKA BILLARD FAIR      53  42  66 SE7       30.15F
6HR MIN TEMP:  52; 6HR MAX TEMP:  68;

TOPEKA FORBES  FAIR      51  42  71 SE6       30.15F
6HR MIN TEMP:  51; 6HR MAX TEMP:  67;

$$



USA.gov is the U.S. government's official web portal to all federal, state and local government web resources and services.